[[{"header":{"parameterUnit":"m.s-1","parameterCategory":1,"la1":30.2991,"la2":30.254,"lo1":-89.0895,"lo2":-89.0444,"dx":0.0017,"dy":0.0017,"nx":28,"ny":28,"refTime":"2022-11-18T15:00:00:Z","depth":0,"parameterNumber":2,"parameterNumberName":"U-component_of_WINDS"},"data":[0,0,0,0,0,0,0,0,0,0,0,0,0,0,0,0,0,0,0,0,0,0,0,0,0,0,0,0,0,0,0,0,0,0,0,0,0,0,0,0,0,0,0,0,0,0,0,0,0,0,0,0,0,0,0,0,0,0,-1.9011,-1.9011,0,-1.8996,-1.8996,-1.8996,-1.8947,-1.8946,-1.8945,-1.8944,-1.8931,-1.8931,-1.8932,0,0,0,0,0,0,0,0,0,0,0,0,0,-1.8998,-1.8999,-1.9011,-1.9011,-1.9011,-1.8996,-1.8996,-1.8996,-1.8948,-1.8946,-1.8945,-1.8944,-1.893,-1.8931,-1.8932,0,0,0,0,0,0,0,0,0,0,0,0,0,-1.8996,-1.8999,-1.9011,-1.8985,-1.8982,-1.8996,-1.8996,-1.8996,-1.8948,-1.8946,-1.8945,-1.8943,-1.893,-1.8931,-1.8932,-1.8971,0,0,-1.8935,-1.8936,0,0,0,0,0,0,0,0,-1.8996,-1.8996,-1.8989,-1.8987,-1.8984,-1.8972,-1.8987,-1.8988,-1.8948,-1.8961,-1.8944,-1.8942,-1.8946,-1.8945,-1.8946,-1.897,-1.897,-1.8935,-1.8936,-1.8936,-1.8937,0,0,0,0,0,0,0,-1.8996,-1.8997,-1.9005,-1.8989,-1.8986,-1.8974,-1.8972,-1.8987,-1.8963,-1.896,-1.8956,-1.8955,-1.8944,-1.8946,-1.8946,-1.897,-1.8935,-1.8936,-1.8937,-1.8937,-1.9025,-1.9027,0,0,0,0,0,0,-1.9,-1.8997,-1.9006,-1.9005,-1.8986,-1.8976,-1.8973,-1.8978,-1.8963,-1.8959,-1.8957,-1.8953,-1.8945,-1.8945,-1.8945,-1.899,-1.8936,-1.8937,-1.8938,-1.9024,-1.9026,-1.9028,0,0,0,0,0,0,-1.9,-1.9001,-1.9006,-1.9,-1.9,-1.8978,-1.8983,-1.8978,-1.8979,-1.896,-1.8956,-1.8962,-1.8943,-1.8944,-1.8965,-1.8989,-1.8938,-1.8939,-1.9021,-1.9024,-1.9027,-1.9081,0,0,0,0,0,0,-1.9,-1.9002,-1.9016,-1.9001,-1.9,-1.9026,-1.8984,-1.8979,-1.8981,-1.8976,-1.8964,-1.8961,-1.8942,-1.8964,-1.8966,-1.8989,-1.8939,-1.9019,-1.9023,-1.9026,-1.9077,-1.9085,-1.9092,0,0,0,0,0,-1.9,-1.9032,-1.9017,-1.9018,-1.9018,-1.9028,-1.9028,-1.9005,-1.8983,-1.8998,-1.8985,-1.8961,-1.8986,-1.8966,-1.8968,-1.8993,-1.9018,-1.9022,-1.9025,-1.9073,-1.9083,-1.9091,0,0,0,0,0,0,-1.9051,-1.9029,-1.9013,-1.9041,-1.9037,-1.902,-1.9037,-1.9016,-1.9019,-1.9014,-1.8986,-1.8984,-1.901,-1.9003,-1.8982,-1.903,-1.8998,-1.9002,-1.9033,-1.9043,-1.905,-1.9052,-1.894,0,0,0,0,0,-1.9066,-1.9075,-1.9056,-1.9083,-1.9081,-1.906,-1.9063,-1.9046,-1.9041,-1.9039,-1.9028,-1.9024,-1.9031,-1.9036,-1.9041,-1.9075,-1.9072,-1.9092,-1.91,-1.9106,-1.9111,-1.9129,-1.9138,-1.904,-1.904,-1.904,0,0,-1.9096,-1.9085,-1.9093,-1.9093,-1.9087,-1.9099,-1.9059,-1.9072,-1.908,-1.9041,-1.9061,-1.9053,-1.9046,-1.9074,-1.9086,-1.9069,-1.9137,-1.9111,-1.9117,-1.9118,-1.9134,-1.9143,-1.9152,-1.9043,-1.9043,-1.9042,0,0,-1.9157,-1.915,-1.9172,-1.9167,-1.9159,-1.9144,-1.915,-1.9136,-1.9129,-1.9148,-1.9119,-1.9128,-1.914,-1.9137,-1.9137,-1.9197,-1.9176,-1.92,-1.924,-1.9258,-1.9265,-1.9272,-1.9294,-1.9303,-1.9204,-1.9204,-1.9204,0,-1.9197,-1.9212,-1.9186,-1.9201,-1.9202,-1.9166,-1.9189,-1.9185,-1.918,-1.9182,-1.9163,-1.9178,-1.9171,-1.9198,-1.9213,-1.9213,-1.9219,-1.9201,-1.9266,-1.9273,-1.9279,-1.93,-1.9308,-1.9207,-1.9207,-1.9207,-1.9206,0,-1.9261,-1.9272,-1.929,-1.9285,-1.9288,-1.9307,-1.9284,-1.929,-1.9273,-1.926,-1.928,-1.9271,-1.9274,-1.9279,-1.9262,-1.9303,-1.9294,-1.9271,-1.9239,-1.9291,-1.9311,-1.9319,-1.9212,-1.921,-1.921,-1.9209,0,0,-1.9355,-1.9335,-1.9343,-1.934,-1.9329,-1.9337,-1.9354,-1.9356,-1.9363,-1.936,-1.9374,-1.9385,-1.9364,-1.9364,-1.9346,-1.9362,-1.9411,-1.9337,-1.9337,-1.9352,-1.9458,-1.9476,-1.9485,-1.9396,-1.9397,-1.9398,-1.9458,0,-1.9415,-1.9443,-1.942,-1.9452,-1.9462,-1.9428,-1.9443,-1.9438,-1.9427,-1.9434,-1.9421,-1.943,-1.9401,-1.9401,-1.9414,-1.9402,-1.9432,-1.9397,-1.941,-1.9411,-1.9414,-1.9495,-1.9514,-1.9572,-1.9466,-1.9467,-1.9468,0,-1.9488,-1.9488,-1.9521,-1.9508,-1.9511,-1.9525,-1.9525,-1.9532,-1.9526,-1.9516,-1.9516,-1.9495,-1.9511,-1.9478,-1.9501,-1.9478,-1.9481,-1.9476,-1.9478,-1.9479,-1.9444,-1.95,-1.9589,-1.9598,-1.9479,-1.9478,-1.9478,0,-1.9555,-1.9563,-1.9585,-1.9583,-1.9568,-1.9578,-1.9572,-1.9564,-1.9567,-1.9567,-1.9569,-1.9571,-1.9573,-1.9576,-1.9555,-1.9533,-1.9581,-1.9546,-1.9575,-1.9575,-1.9588,-1.9587,-1.968,-1.9588,-1.9588,-1.9587,-1.9587,0,-1.9624,-1.9647,-1.9615,-1.9628,-1.9652,-1.9625,-1.965,-1.964,-1.9633,-1.9644,-1.9614,-1.9626,-1.9597,-1.9606,-1.959,-1.9612,-1.9612,-1.9606,-1.9602,-1.9609,-1.9611,-1.9613,-1.9609,-1.959,-1.9589,-1.9589,-1.9588,0,-1.9704,-1.9684,-1.9705,-1.9688,-1.9684,-1.9703,-1.9688,-1.97,-1.9686,-1.9701,-1.9703,-1.9681,-1.969,-1.9669,-1.9675,-1.9664,-1.9696,-1.9684,-1.9698,-1.9695,-1.9725,-1.9723,-1.9823,-1.9836,-1.9734,-1.9735,-1.9736,0,-1.9751,-1.9767,-1.9752,-1.9757,-1.9752,-1.9761,-1.9763,-1.9737,-1.9741,-1.9735,-1.9748,-1.9754,-1.9757,-1.9772,-1.9758,-1.9762,-1.9751,-1.9786,-1.9752,-1.9759,-1.9754,-1.9754,-1.9755,-1.9794,-1.9795,-1.9796,-1.9797,0,-1.9836,-1.9825,-1.9829,-1.9831,-1.9835,-1.9834,-1.9832,-1.9838,-1.981,-1.9816,-1.9824,-1.9827,-1.9832,-1.9839,-1.984,-1.9834,-1.9812,-1.9807,-1.9814,-1.9823,-1.9831,-1.9829,-1.9719,-1.9806,-1.9805,-1.9804,-1.9804,-1.9803,-1.9901,-1.9914,-1.9906,-1.9912,-1.9907,-1.9906,-1.9916,-1.9903,-1.9909,-1.9911,-1.9895,-1.9907,-1.99,-1.9899,-1.9895,-1.9904,-1.9889,-1.9899,-1.9902,-1.9905,-1.991,-1.9828,-1.9904,-1.9904,-1.9904,-1.9904,-1.9903,0,-1.9986,-1.9979,-1.9984,-1.9982,-1.9987,-1.9964,-1.996,-1.9966,-1.9977,-1.9972,-1.9975,-1.9985,-1.9991,-1.9977,-1.9981,-1.9991,-1.9981,-1.9993,-1.9993,-1.9992,-1.9923,-1.9918,-2.0001,-2.0001,-2.0001,-2.0001,-2.0001,-2.0001,-2.0031,-2.0052,-2.004,-2.0058,-2.005,-2.0061,-2.0061,-2.006,-2.0056,-2.0068,-2.0072,-2.0062,-2.0054,-2.0057,-2.0062,-2.0057,-2.0061,-2.0077,-2.007,-2.0006,-1.9997,-1.9988,-1.9982,-2.0078,-2.0078,-2.0137,-2.0138,-2.0138]},{"header":{"parameterUnit":"m.s-1","parameterCategory":1,"la1":30.2991,"la2":30.254,"lo1":-89.0895,"lo2":-89.0444,"dx":0.0017,"dy":0.0017,"nx":28,"ny":28,"refTime":"2022-11-18T15:00:00:Z","depth":0,"parameterNumber":3,"parameterNumberName":"V-component_of_WINDS"},"data":[0,0,0,0,0,0,0,0,0,0,0,0,0,0,0,0,0,0,0,0,0,0,0,0,0,0,0,0,0,0,0,0,0,0,0,0,0,0,0,0,0,0,0,0,0,0,0,0,0,0,0,0,0,0,0,0,0,0,-2.8489,-2.8489,0,-2.8547,-2.8547,-2.8548,-2.8548,-2.8547,-2.8546,-2.8546,-2.8604,-2.8606,-2.8608,0,0,0,0,0,0,0,0,0,0,0,0,0,-2.8377,-2.8379,-2.8489,-2.8489,-2.849,-2.8546,-2.8547,-2.8548,-2.8548,-2.8547,-2.8546,-2.8545,-2.8603,-2.8605,-2.8608,0,0,0,0,0,0,0,0,0,0,0,0,0,-2.8429,-2.8379,-2.8488,-2.8497,-2.8498,-2.8546,-2.8547,-2.8548,-2.8548,-2.8547,-2.8546,-2.8545,-2.8602,-2.8605,-2.8608,-2.8652,0,0,-2.8619,-2.862,0,0,0,0,0,0,0,0,-2.8426,-2.8433,-2.8495,-2.8496,-2.8498,-2.8539,-2.8529,-2.8583,-2.8548,-2.8529,-2.8546,-2.8544,-2.8583,-2.8588,-2.8601,-2.8654,-2.8657,-2.8619,-2.8621,-2.8623,-2.8623,0,0,0,0,0,0,0,-2.8422,-2.843,-2.8511,-2.8496,-2.8498,-2.8497,-2.8503,-2.8539,-2.8561,-2.8531,-2.8531,-2.8538,-2.8583,-2.8598,-2.8602,-2.8658,-2.8619,-2.8622,-2.8624,-2.8625,-2.875,-2.8751,0,0,0,0,0,0,-2.8417,-2.8427,-2.851,-2.8513,-2.8458,-2.85,-2.8507,-2.8527,-2.8561,-2.8565,-2.8539,-2.8538,-2.8593,-2.8598,-2.8604,-2.8658,-2.8622,-2.8626,-2.8628,-2.8749,-2.875,-2.8752,0,0,0,0,0,0,-2.8415,-2.8424,-2.8507,-2.847,-2.8481,-2.8503,-2.8525,-2.8529,-2.8543,-2.8567,-2.8571,-2.8549,-2.8592,-2.86,-2.864,-2.866,-2.8627,-2.863,-2.8747,-2.8749,-2.8751,-2.8765,0,0,0,0,0,0,-2.8412,-2.8424,-2.8441,-2.8471,-2.8483,-2.8543,-2.8527,-2.8531,-2.8549,-2.8548,-2.8578,-2.8582,-2.8592,-2.8635,-2.8643,-2.8664,-2.8633,-2.8745,-2.8748,-2.875,-2.8763,-2.8767,-2.8771,0,0,0,0,0,-2.8408,-2.8442,-2.8441,-2.8451,-2.8505,-2.8544,-2.8551,-2.8561,-2.855,-2.8568,-2.8583,-2.8581,-2.8656,-2.8639,-2.8649,-2.867,-2.8744,-2.8747,-2.875,-2.8761,-2.8766,-2.8771,0,0,0,0,0,0,-2.8413,-2.8446,-2.8446,-2.8491,-2.8515,-2.8544,-2.8566,-2.8566,-2.8593,-2.8591,-2.8603,-2.8609,-2.865,-2.8664,-2.8645,-2.8714,-2.8699,-2.8704,-2.8704,-2.8709,-2.8713,-2.8709,-2.8636,0,0,0,0,0,-2.8419,-2.8449,-2.8476,-2.8513,-2.8525,-2.8543,-2.8561,-2.8567,-2.8591,-2.8601,-2.862,-2.8644,-2.8672,-2.8691,-2.8719,-2.8764,-2.8771,-2.8784,-2.8788,-2.8791,-2.8796,-2.8821,-2.8827,-2.8761,-2.8761,-2.8761,0,0,-2.8433,-2.8454,-2.8472,-2.8514,-2.8534,-2.8564,-2.8552,-2.8584,-2.8606,-2.8606,-2.8646,-2.866,-2.8687,-2.8731,-2.8751,-2.8744,-2.8815,-2.8795,-2.8797,-2.88,-2.8825,-2.8831,-2.8837,-2.8763,-2.8763,-2.8763,0,0,-2.8473,-2.8492,-2.8526,-2.8545,-2.8574,-2.8586,-2.8594,-2.8623,-2.8633,-2.8673,-2.8674,-2.87,-2.875,-2.877,-2.8786,-2.8834,-2.8833,-2.8842,-2.8864,-2.8888,-2.8894,-2.8898,-2.8916,-2.8922,-2.8846,-2.8846,-2.8846,0,-2.8486,-2.8532,-2.8543,-2.8575,-2.8594,-2.8596,-2.863,-2.8648,-2.8684,-2.8697,-2.8689,-2.8751,-2.8769,-2.8818,-2.8829,-2.8842,-2.8852,-2.8839,-2.8892,-2.8897,-2.8901,-2.8919,-2.8925,-2.8847,-2.8847,-2.8847,-2.8847,0,-2.8547,-2.8579,-2.8602,-2.8638,-2.8659,-2.8692,-2.8708,-2.8728,-2.8732,-2.8745,-2.8786,-2.8808,-2.8841,-2.8852,-2.8856,-2.8901,-2.8896,-2.889,-2.8875,-2.8909,-2.8925,-2.8932,-2.8849,-2.8849,-2.8848,-2.8848,0,0,-2.8593,-2.8635,-2.8643,-2.866,-2.8692,-2.8717,-2.875,-2.8782,-2.88,-2.8824,-2.8853,-2.8894,-2.8889,-2.8908,-2.8914,-2.8935,-2.8973,-2.8926,-2.8927,-2.8935,-2.9025,-2.903,-2.9038,-2.8972,-2.8973,-2.8974,-2.9023,0,-2.8638,-2.8697,-2.8708,-2.876,-2.879,-2.8791,-2.882,-2.8843,-2.8855,-2.8882,-2.8896,-2.8926,-2.8915,-2.8927,-2.8948,-2.8964,-2.8991,-2.896,-2.8999,-2.9,-2.8993,-2.9046,-2.9052,-2.9097,-2.9029,-2.903,-2.9031,0,-2.8698,-2.8726,-2.8781,-2.8809,-2.8822,-2.8848,-2.8879,-2.8904,-2.893,-2.8938,-2.8959,-2.8962,-2.8996,-2.8979,-2.9026,-2.9005,-2.9021,-2.9031,-2.9033,-2.9038,-2.9018,-2.9053,-2.9111,-2.9118,-2.9041,-2.904,-2.9039,0,-2.8727,-2.8778,-2.8818,-2.8832,-2.8866,-2.8884,-2.8899,-2.8924,-2.8943,-2.8969,-2.8982,-2.9012,-2.9029,-2.9051,-2.9063,-2.9049,-2.911,-2.9093,-2.9118,-2.9117,-2.9131,-2.913,-2.9193,-2.914,-2.914,-2.9139,-2.9139,0,-2.8777,-2.8811,-2.8832,-2.8856,-2.8894,-2.8905,-2.8943,-2.8957,-2.8979,-2.9006,-2.9009,-2.9034,-2.9047,-2.9075,-2.9084,-2.9122,-2.9129,-2.9136,-2.9139,-2.9137,-2.9136,-2.9149,-2.9146,-2.9141,-2.9141,-2.914,-2.914,0,-2.8817,-2.8832,-2.8876,-2.8905,-2.8913,-2.8939,-2.8964,-2.8988,-2.9,-2.9035,-2.9043,-2.9063,-2.9095,-2.9108,-2.9148,-2.9154,-2.9198,-2.9197,-2.919,-2.9191,-2.9215,-2.9213,-2.9289,-2.93,-2.9238,-2.9238,-2.9239,0,-2.8848,-2.8875,-2.8906,-2.8925,-2.8941,-2.8971,-2.8991,-2.9002,-2.9023,-2.9054,-2.9074,-2.9106,-2.9133,-2.9185,-2.9202,-2.9232,-2.9233,-2.9257,-2.9237,-2.9235,-2.9235,-2.9233,-2.9236,-2.9261,-2.9262,-2.9262,-2.9263,0,-2.8902,-2.8909,-2.8937,-2.8969,-2.8992,-2.9017,-2.9042,-2.9057,-2.9072,-2.9095,-2.9128,-2.9149,-2.9189,-2.9222,-2.9253,-2.9268,-2.9268,-2.9269,-2.9276,-2.9276,-2.9271,-2.9275,-2.9201,-2.9267,-2.9267,-2.9267,-2.9266,-2.9266,-2.894,-2.8964,-2.899,-2.9022,-2.9042,-2.9065,-2.9089,-2.9104,-2.9132,-2.9167,-2.9172,-2.9208,-2.9232,-2.9275,-2.9291,-2.9319,-2.9313,-2.9323,-2.9326,-2.9329,-2.9331,-2.9265,-2.9324,-2.9324,-2.9324,-2.9324,-2.9324,0,-2.8995,-2.9012,-2.9042,-2.9076,-2.9101,-2.9099,-2.9126,-2.9147,-2.9179,-2.9202,-2.9229,-2.9267,-2.9299,-2.9318,-2.935,-2.9369,-2.937,-2.9377,-2.9376,-2.938,-2.9334,-2.9325,-2.9375,-2.9375,-2.9375,-2.9375,-2.9375,-2.9375,-2.9027,-2.9068,-2.9077,-2.9127,-2.9144,-2.918,-2.9195,-2.9216,-2.9235,-2.9279,-2.9305,-2.9318,-2.934,-2.9373,-2.9401,-2.9406,-2.9418,-2.9426,-2.9431,-2.9388,-2.9383,-2.9378,-2.9369,-2.9428,-2.9428,-2.9474,-2.9474,-2.9475]}]]